Home > Weather > Bilbao > Past weeks

Flag for Spain Weather for the Past 2 Weeks in Bilbao, Spain

Now
66 °F

Passing clouds.


Feels Like: 66 °F
Forecast: 60 / 73 °F
Wind: 17 mph from South

Location: Bilbao / Sondica

Current Time: May 7, 2016 at 1:40:52 AM

Latest Report: May 7, 2016 at 12:00 AM


Visibility: N/A

Pressure: 29.68 "Hg

Humidity: 60%

Dew Point: 52 °F

Location of BilbaoLocation

Historic Weather in Bilbao — Graph

°F

Bilbao Temperature Yesterday

Maximum temperature yesterday: 77 °F (at 4:30 PM)
Minimum temperature yesterday: 64 °F (at 12:00 AM)
Average temperature yesterday: 69 °F

High & Low Weather Summary for the Past Weeks

 TemperatureHumidityPressure
High82 °F (May 5, 12:30 PM)100% (Apr 22, 5:30 AM)30.48 "Hg (Apr 22, 5:30 AM)
Low39 °F (Apr 25, 7:00 AM)32% (May 5, 12:00 PM)29.68 "Hg (May 6, 4:30 PM)
Average57 °F69%30.11 "Hg
* Reported Apr 22 5:00 AM — Midnight between May 6 and May 7, Bilbao, Weather by CustomWeather, © 2016

Note: Actual official high and low records may vary slightly from our data, if they occured in-between our weather recording intervals... More about our weather records

Advertising

Bilbao Weather History for the Previous 24 Hours

Scroll right to see more
 ConditionsComfort  
Time TempWeatherWind HumidityBarometerVisibility
12:00 AM
Sat, May 7
66 °FPassing clouds.17 mph60%29.68 "HgN/A
11:30 PM
Fri, May 6
66 °FPassing clouds.21 mph60%29.68 "HgN/A
11:00 PM66 °FPassing clouds.17 mph60%29.68 "HgN/A
10:30 PM66 °FPassing clouds.14 mph60%29.68 "HgN/A
10:00 PM66 °FPassing clouds.16 mph60%29.68 "HgN/A
9:30 PM66 °FPassing clouds.15 mph60%29.68 "HgN/A
9:00 PM68 °FPassing clouds.10 mph56%29.68 "HgN/A
8:30 PM68 °FPassing clouds.17 mph53%29.68 "HgN/A
8:00 PM70 °FPassing clouds.17 mph53%29.68 "HgN/A
7:30 PM70 °FPassing clouds.17 mph53%29.68 "HgN/A
7:00 PM72 °FPassing clouds.16 mph50%29.68 "HgN/A
6:30 PM72 °FPassing clouds.16 mph47%29.68 "HgN/A
6:00 PM72 °FPassing clouds.16 mph44%29.68 "HgN/A
5:30 PM73 °FPassing clouds.17 mph41%29.68 "HgN/A
5:00 PM77 °FScattered clouds.17 mph39%29.68 "HgN/A
4:30 PM77 °FPassing clouds.20 mph36%29.68 "HgN/A
4:00 PM73 °FPassing clouds.20 mph41%29.71 "HgN/A
3:30 PM75 °FPassing clouds.20 mph41%29.71 "HgN/A
3:00 PM75 °FPassing clouds.20 mph41%29.71 "HgN/A
2:30 PM75 °FPassing clouds.16 mph41%29.71 "HgN/A
2:00 PM73 °FPassing clouds.15 mph47%29.74 "HgN/A
1:30 PM73 °FPassing clouds.14 mph47%29.74 "HgN/A
1:00 PM73 °FPassing clouds.12 mph44%29.74 "HgN/A
12:30 PM72 °FPassing clouds.18 mph47%29.74 "HgN/A
12:00 PM70 °FPassing clouds.21 mph50%29.77 "HgN/A
11:30 AM68 °FPassing clouds.15 mph49%29.77 "HgN/A
11:00 AM68 °FPassing clouds.16 mph46%29.77 "HgN/A
10:30 AM66 °FPassing clouds.16 mph49%29.77 "HgN/A
10:00 AM64 °FPassing clouds.16 mph73%29.77 "HgN/A
9:30 AM64 °FPassing clouds.16 mph73%29.77 "HgN/A
9:00 AM64 °FPassing clouds.15 mph73%29.77 "HgN/A
8:30 AM64 °FPassing clouds.8 mph73%29.80 "HgN/A
8:00 AM64 °FPassing clouds.8 mph73%29.80 "HgN/A
7:30 AM64 °FPassing clouds.15 mph73%29.80 "HgN/A
7:00 AM64 °FPassing clouds.5 mph73%29.80 "HgN/A
6:30 AM64 °FClear.No wind73%29.80 "Hg10 mi
6:00 AM64 °FClear.3 mph73%29.80 "Hg10 mi
5:30 AM64 °FClear.6 mph73%29.80 "Hg10 mi
5:00 AM64 °FClear.6 mph73%29.80 "Hg10 mi
Weather by CustomWeather, © 2016

See weather overviewHow to use our weather pages